Starlink 5657

operational
NORAD ID: 55342 Int'l Des: 2023-013 Owner: SPXS Country: US Constellation: starlink
LEOCIRCULAR

Über Starlink 5657

Beschreibung wird geladen...

Live-Position

3D-Globus wird geladen...

Nächste Überflüge

Höhenverlauf

Altitude vs Time

uPlot chart will show altitude changes over time

Zweizeiliger Elementsatz

1 55342U 23013M 25305.62639995 .00000807 00000-0 74833-4 0 9996
2 55342 43.0054 276.3396 0001155 261.7364 98.3347 15.02530831152442
Epoch: 1. Nov. 2025 • Age: 7 hours

Aktueller Status

Höhe 564.4 km
Geschwindigkeit 7.58 km/s
Subsatellitenpunkt -24.03°S, 106°E
Startdatum 26. Jan. 2023
Alter 2.7 years
Typ internet

Technische Details

Klassifizierung Payload
Masse 305.00 kg
Trockenmasse 290.00 kg
Gesamtmasse 305.00 kg
Länge 0.20 m
Durchmesser 2.80 m
Spannweite 9.00 m
Form Box + pan
Hersteller SPXS
Bus-Typ Starlink
Phasenstatus In Orbit
Besitzer/Staat SPXS/US

Große Konstellationen

Loading constellations...